Location: ActonStarParty
(42.4766°N, 71.4538°W)
Time: 21:51:20
(UTC-04:00)

Cosmos 1300 - Visible Passes

Search period start: 30 June 2015 00:00
Search period end: 10 July 2015 00:00
Orbit: 521 x 523 km, 82.5° (Epoch: 29 June)

Date Brightness Start Highest point End Pass type
(mag) Time Alt. Az. Time Alt. Az. Time Alt. Az.
30 Jun 4.0 21:01:07 10° NNE 21:04:23 26° ENE 21:07:42 10° SE visible
30 Jun 4.9 22:37:11 10° NW 22:40:08 20° W 22:43:00 10° SW visible
01 Jul 4.8 22:24:01 10° NW 22:27:09 23° W 22:30:13 10° SW visible
02 Jul 4.6 22:10:51 10° NNW 22:14:10 27° W 22:17:25 10° SSW visible
03 Jul 4.4 21:57:43 10° NNW 22:01:10 31° W 22:04:34 10° SSW visible
04 Jul 4.2 21:44:36 10° NNW 21:48:10 35° W 21:51:42 10° SSW visible
05 Jul 3.9 21:31:30 10° NNW 21:35:10 41° W 21:38:48 10° SSW visible
06 Jul 3.7 21:18:25 10° NNW 21:22:09 48° W 21:25:51 10° SSW visible
07 Jul 3.4 21:05:20 10° NNW 21:09:08 56° W 21:12:54 10° S visible
08 Jul 3.2 20:52:16 10° NNW 20:56:07 66° W 20:59:56 10° S visible
